GFSSGP_prec_pwat_132.txt.gz
Precipitable_Water
0.72 0.99 1.10 0.85 0.30 0.32 0.18 0.23 0.46 0.49 0.52 0.60 0.63 0.67 0.71 0.91 0.77 0.61 1.47 1.64 1.34 1.18 1.43 1.69 1.71 1.53 1.36 1.53 1.72 1.60 1.43 1.29 1.33 1.37 1.41 1.32 1.19 1.01 0.98 0.99 1.06 1.18 1.24 1.29 1.30 1.35 1.36 1.43 1.48
0.61 0.98 0.93 0.64 0.22 0.13 0.13 0.34 0.41 0.44 0.52 0.57 0.62 0.78 0.76 0.76 1.08 1.14 1.28 1.49 1.41 1.27 1.47 1.69 1.75 1.71 1.45 1.59 1.70 1.68 1.46 1.29 1.32 1.40 1.40 1.29 1.13 1.07 1.06 1.05 1.10 1.19 1.22 1.23 1.28 1.25 1.28 1.28 1.33
0.68 0.92 0.55 0.35 0.25 0.11 0.13 0.36 0.37 0.44 0.52 0.57 0.59 0.80 0.89 0.88 1.15 1.23 1.38 1.45 1.38 1.32 1.50 1.66 1.78 1.80 1.66 1.59 1.69 1.75 1.52 1.30 1.25 1.38 1.38 1.32 1.13 1.12 1.10 1.10 1.16 1.24 1.25 1.26 1.34 1.29 1.33 1.31 1.31
0.70 0.68 0.53 0.27 0.16 0.26 0.28 0.34 0.34 0.37 0.52 0.65 0.67 0.60 0.97 1.18 1.14 1.33 1.51 1.57 1.39 1.33 1.51 1.62 1.78 1.81 1.77 1.67 1.71 1.69 1.50 1.35 1.22 1.27 1.40 1.33 1.21 1.18 1.14 1.13 1.13 1.23 1.24 1.25 1.28 1.25 1.31 1.28 1.32
0.64 0.44 0.20 0.17 0.16 0.26 0.30 0.30 0.31 0.30 0.49 0.60 0.65 0.62 0.83 1.13 1.34 1.41 1.51 1.61 1.50 1.46 1.56 1.70 1.75 1.82 1.82 1.86 1.76 1.75 1.48 1.35 1.25 1.39 1.44 1.27 1.25 1.22 1.20 1.20 1.19 1.24 1.22 1.24 1.25 1.20 1.18 1.27 1.24
0.30 0.32 0.12 0.09 0.12 0.20 0.28 0.28 0.30 0.30 0.41 0.51 0.59 0.66 0.85 1.23 1.24 1.41 1.57 1.64 1.65 1.50 1.62 1.76 1.87 1.88 1.88 1.95 1.90 1.75 1.60 1.33 1.24 1.36 1.40 1.27 1.28 1.33 1.36 1.33 1.24 1.22 1.24 1.19 1.19 1.13 1.12 1.15 1.21
0.23 0.20 0.12 0.14 0.15 0.20 0.24 0.33 0.30 0.31 0.32 0.38 0.61 0.60 0.75 0.96 1.22 1.41 1.52 1.63 1.72 1.69 1.73 1.76 1.86 1.87 1.90 2.03 1.94 1.82 1.67 1.51 1.34 1.25 1.35 1.53 1.45 1.52 1.47 1.37 1.31 1.33 1.23 1.17 1.17 1.09 1.08 1.11 1.16
0.38 0.30 0.20 0.20 0.15 0.17 0.27 0.32 0.35 0.34 0.33 0.42 0.57 0.43 0.61 0.97 1.23 1.34 1.44 1.52 1.66 1.74 1.74 1.74 1.71 1.85 1.89 2.04 2.08 1.89 1.74 1.69 1.53 1.33 1.47 1.64 1.73 1.61 1.51 1.35 1.37 1.38 1.22 1.23 1.22 1.11 1.10 1.08 1.11
0.46 0.22 0.16 0.19 0.18 0.21 0.30 0.30 0.37 0.40 0.35 0.40 0.43 0.47 0.59 0.89 1.15 1.11 1.19 1.29 1.37 1.58 1.65 1.64 1.65 1.74 1.83 1.88 1.99 2.06 1.94 1.76 1.65 1.47 1.49 1.59 1.78 1.65 1.51 1.34 1.35 1.37 1.17 1.17 1.16 1.13 1.07 0.98 0.94
0.31 0.19 0.18 0.27 0.26 0.23 0.29 0.32 0.34 0.34 0.35 0.35 0.40 0.47 0.59 0.80 0.85 0.81 0.97 1.04 1.16 1.28 1.48 1.59 1.53 1.66 1.80 1.86 1.81 1.91 2.10 1.94 1.60 1.49 1.50 1.48 1.58 1.55 1.42 1.42 1.32 1.34 1.16 1.09 1.09 1.06 0.98 0.86 0.85
0.33 0.21 0.28 0.29 0.30 0.32 0.32 0.36 0.41 0.37 0.34 0.41 0.41 0.44 0.49 0.61 0.72 0.77 0.75 0.89 1.03 1.18 1.30 1.46 1.45 1.41 1.44 1.69 1.81 1.70 1.72 2.03 1.75 1.50 1.48 1.44 1.32 1.38 1.40 1.45 1.29 1.28 1.14 1.10 1.05 0.95 0.89 0.84 0.81
0.27 0.33 0.34 0.36 0.40 0.38 0.37 0.42 0.40 0.43 0.44 0.52 0.52 0.53 0.54 0.51 0.50 0.54 0.58 0.68 0.85 0.94 1.07 1.21 1.27 1.27 1.19 1.31 1.53 1.57 1.67 1.99 1.81 1.57 1.51 1.35 1.23 1.35 1.44 1.35 1.14 1.17 1.02 1.00 0.95 0.89 0.89 0.77 0.78
0.33 0.35 0.38 0.41 0.42 0.42 0.44 0.41 0.42 0.45 0.54 0.60 0.62 0.62 0.60 0.59 0.59 0.59 0.59 0.60 0.64 0.80 0.92 1.01 1.06 1.07 1.10 1.08 1.33 1.35 1.60 1.97 1.79 1.63 1.55 1.35 1.25 1.36 1.41 1.24 1.05 1.07 0.95 0.94 0.89 0.93 0.90 0.77 0.78
0.37 0.37 0.37 0.38 0.35 0.39 0.38 0.42 0.45 0.50 0.58 0.58 0.61 0.61 0.63 0.64 0.64 0.66 0.64 0.60 0.59 0.61 0.73 0.87 0.97 1.09 1.18 1.20 1.39 1.70 1.86 1.94 1.77 1.64 1.56 1.34 1.30 1.35 1.34 1.13 0.97 1.05 0.89 0.90 0.93 0.94 0.93 0.87 0.81
0.37 0.29 0.32 0.32 0.34 0.34 0.43 0.36 0.40 0.51 0.57 0.56 0.60 0.63 0.64 0.66 0.71 0.67 0.68 0.67 0.67 0.65 0.65 0.73 1.00 1.12 1.18 1.30 1.45 1.76 1.91 1.91 1.76 1.69 1.53 1.30 1.28 1.36 1.24 1.05 0.95 0.99 0.88 0.91 0.97 1.00 0.98 0.91 0.88
0.26 0.26 0.19 0.26 0.30 0.38 0.39 0.25 0.42 0.53 0.54 0.55 0.60 0.64 0.66 0.68 0.70 0.75 0.76 0.72 0.74 0.73 0.71 0.82 0.99 1.13 1.24 1.35 1.38 1.58 1.69 1.85 1.78 1.69 1.53 1.32 1.34 1.35 1.30 1.07 0.98 0.92 0.88 0.94 0.97 0.99 0.96 0.93 0.90
0.22 0.15 0.17 0.19 0.30 0.34 0.35 0.28 0.41 0.51 0.52 0.52 0.55 0.58 0.58 0.60 0.70 0.74 0.76 0.75 0.74 0.74 0.79 0.86 1.00 1.10 1.22 1.29 1.29 1.52 1.66 1.65 1.78 1.71 1.48 1.34 1.38 1.43 1.36 0.98 0.96 0.89 0.89 0.95 0.99 1.01 0.99 0.94 0.93
0.14 0.16 0.18 0.18 0.25 0.31 0.30 0.29 0.39 0.48 0.50 0.49 0.53 0.60 0.62 0.64 0.67 0.74 0.75 0.74 0.75 0.78 0.89 0.92 1.00 1.14 1.27 1.32 1.48 1.44 1.49 1.62 1.72 1.63 1.39 1.40 1.42 1.52 1.30 0.99 0.96 0.86 0.85 0.92 1.00 1.01 1.02 0.99 0.96
0.22 0.19 0.18 0.21 0.28 0.33 0.32 0.32 0.35 0.47 0.51 0.53 0.56 0.61 0.66 0.69 0.76 0.81 0.82 0.77 0.79 0.86 0.93 0.97 0.95 1.06 1.16 1.30 1.35 1.40 1.41 1.61 1.66 1.48 1.35 1.44 1.56 1.60 1.27 0.94 0.87 0.84 0.80 0.84 0.97 1.01 1.01 0.98 0.99
0.22 0.18 0.18 0.22 0.31 0.30 0.31 0.34 0.41 0.47 0.51 0.56 0.61 0.67 0.66 0.64 0.65 0.70 0.80 0.80 0.83 0.89 0.99 0.98 0.96 1.01 1.21 1.31 1.38 1.42 1.48 1.60 1.62 1.49 1.45 1.53 1.61 1.69 1.45 1.08 0.95 0.84 0.81 0.86 0.90 0.97 0.96 0.96 1.00
0.21 0.18 0.18 0.20 0.28 0.32 0.32 0.27 0.33 0.44 0.50 0.57 0.69 0.70 0.67 0.68 0.70 0.71 0.73 0.85 0.87 0.88 1.00 1.05 1.06 1.11 1.25 1.34 1.39 1.46 1.55 1.58 1.53 1.52 1.51 1.53 1.61 1.56 1.48 1.34 1.14 0.99 0.85 0.82 0.87 0.93 0.93 0.88 0.95
0.16 0.23 0.24 0.24 0.24 0.19 0.34 0.19 0.29 0.38 0.39 0.56 0.62 0.60 0.72 0.73 0.75 0.74 0.83 0.87 0.88 0.91 1.10 1.11 1.16 1.24 1.30 1.45 1.41 1.36 1.36 1.40 1.49 1.57 1.60 1.58 1.64 1.49 1.45 1.38 1.26 1.05 0.94 0.85 0.86 0.91 0.90 0.90 0.85
0.19 0.28 0.28 0.30 0.26 0.26 0.28 0.24 0.25 0.35 0.31 0.49 0.58 0.69 0.76 0.76 0.76 0.82 0.89 0.91 0.96 1.03 1.08 1.15 1.17 1.26 1.35 1.43 1.42 1.33 1.33 1.41 1.57 1.51 1.39 1.43 1.56 1.52 1.57 1.45 1.30 1.06 0.95 0.87 0.82 0.83 0.83 0.85 0.85
0.27 0.29 0.29 0.34 0.30 0.19 0.25 0.25 0.21 0.27 0.33 0.49 0.59 0.67 0.78 0.80 0.89 0.94 0.99 0.99 0.98 1.02 1.06 1.10 1.09 1.14 1.18 1.26 1.24 1.22 1.22 1.27 1.31 1.21 1.20 1.39 1.48 1.44 1.45 1.38 1.25 1.08 0.96 0.89 0.84 0.82 0.84 0.88 0.88
0.28 0.24 0.16 0.15 0.18 0.14 0.27 0.23 0.21 0.32 0.41 0.53 0.57 0.67 0.80 0.86 0.88 0.92 0.94 0.98 1.01 1.03 1.07 1.07 1.07 1.08 1.11 1.15 1.19 1.23 1.26 1.27 1.22 1.25 1.27 1.31 1.37 1.35 1.42 1.43 1.28 1.14 1.04 0.96 0.90 0.89 0.91 0.92 0.89
0.25 0.24 0.16 0.11 0.11 0.14 0.26 0.17 0.19 0.35 0.46 0.58 0.64 0.71 0.80 0.86 0.92 0.91 0.96 1.00 1.04 1.08 1.09 1.08 1.04 1.01 1.05 1.09 1.11 1.17 1.20 1.18 1.20 1.26 1.30 1.31 1.29 1.29 1.35 1.33 1.24 1.15 1.08 1.04 1.01 0.99 1.00 0.96 0.92
0.26 0.23 0.31 0.21 0.25 0.18 0.20 0.25 0.27 0.33 0.35 0.51 0.61 0.63 0.71 0.80 0.87 0.94 0.99 1.03 1.05 1.05 1.03 1.01 0.99 1.02 1.03 1.02 1.04 1.10 1.16 1.17 1.17 1.27 1.31 1.30 1.34 1.35 1.37 1.33 1.25 1.21 1.16 1.12 1.06 1.02 1.01 1.01 1.01
0.27 0.35 0.24 0.25 0.14 0.12 0.15 0.17 0.16 0.19 0.22 0.45 0.56 0.60 0.63 0.69 0.75 0.81 0.85 0.93 0.97 0.97 0.98 1.02 1.01 0.99 1.03 1.03 1.06 1.06 1.11 1.22 1.22 1.26 1.29 1.30 1.31 1.35 1.36 1.33 1.28 1.25 1.22 1.19 1.15 1.11 1.11 1.07 1.04
0.29 0.27 0.27 0.26 0.24 0.15 0.13 0.14 0.26 0.23 0.24 0.41 0.55 0.64 0.67 0.71 0.73 0.77 0.81 0.83 0.85 0.91 0.91 0.97 0.99 1.02 1.09 1.11 1.11 1.14 1.18 1.19 1.23 1.28 1.29 1.30 1.31 1.33 1.32 1.32 1.30 1.26 1.21 1.20 1.16 1.13 1.11 1.07 1.07
0.31 0.27 0.27 0.19 0.18 0.24 0.21 0.16 0.33 0.30 0.30 0.43 0.55 0.64 0.71 0.76 0.80 0.84 0.88 0.96 0.93 0.93 0.92 0.93 0.97 1.09 1.11 1.13 1.17 1.17 1.22 1.22 1.21 1.25 1.29 1.28 1.24 1.27 1.27 1.26 1.24 1.21 1.19 1.16 1.12 1.07 1.06 1.03 0.99

GFSSGP_prec_pwat_135.txt.gz
Precipitable_Water
0.67 0.94 1.02 0.74 0.25 0.28 0.17 0.27 0.51 0.45 0.44 0.52 0.58 0.63 0.65 0.85 0.72 0.58 1.41 1.57 1.53 1.36 1.53 1.78 1.80 1.57 1.61 1.75 1.67 1.56 1.45 1.42 1.48 1.50 1.40 1.20 1.00 0.96 1.01 1.13 1.24 1.35 1.43 1.41 1.47 1.44 1.47 1.54 1.61
0.61 0.92 0.84 0.53 0.21 0.13 0.14 0.37 0.34 0.40 0.48 0.58 0.62 0.79 0.77 0.75 1.07 1.11 1.21 1.41 1.35 1.40 1.56 1.74 1.83 1.66 1.59 1.70 1.76 1.64 1.45 1.42 1.45 1.48 1.40 1.29 1.07 1.02 1.02 1.10 1.24 1.29 1.37 1.32 1.35 1.35 1.37 1.40 1.39
0.66 0.87 0.47 0.32 0.22 0.11 0.15 0.34 0.32 0.42 0.47 0.57 0.57 0.76 0.87 0.87 1.13 1.20 1.35 1.42 1.30 1.34 1.54 1.76 1.85 1.75 1.71 1.71 1.69 1.71 1.53 1.47 1.45 1.48 1.37 1.24 1.11 1.10 1.07 1.17 1.23 1.26 1.29 1.37 1.31 1.29 1.31 1.34 1.27
0.65 0.65 0.48 0.26 0.15 0.26 0.27 0.31 0.29 0.35 0.50 0.58 0.61 0.59 0.95 1.17 1.12 1.31 1.48 1.54 1.32 1.34 1.52 1.75 1.88 1.85 1.83 1.81 1.77 1.68 1.57 1.44 1.53 1.41 1.37 1.20 1.13 1.14 1.13 1.24 1.30 1.29 1.31 1.39 1.32 1.33 1.29 1.40 1.27
0.61 0.41 0.19 0.16 0.16 0.28 0.33 0.28 0.27 0.25 0.35 0.46 0.60 0.56 0.79 1.14 1.32 1.43 1.50 1.52 1.42 1.45 1.52 1.63 1.86 1.90 1.89 1.91 1.89 1.79 1.57 1.39 1.44 1.39 1.38 1.20 1.16 1.18 1.19 1.23 1.34 1.27 1.33 1.35 1.31 1.32 1.32 1.33 1.32
0.29 0.29 0.11 0.08 0.12 0.20 0.27 0.28 0.27 0.26 0.30 0.36 0.47 0.60 0.73 1.14 1.21 1.39 1.53 1.53 1.50 1.48 1.58 1.65 1.73 1.82 1.90 1.96 1.95 1.90 1.67 1.44 1.36 1.43 1.48 1.25 1.15 1.21 1.25 1.29 1.32 1.22 1.34 1.33 1.29 1.22 1.29 1.27 1.32
0.21 0.16 0.10 0.13 0.14 0.18 0.23 0.30 0.27 0.28 0.29 0.29 0.45 0.46 0.66 0.92 1.18 1.38 1.48 1.58 1.60 1.54 1.64 1.74 1.82 1.83 1.89 1.90 2.07 1.97 1.81 1.55 1.44 1.44 1.44 1.30 1.21 1.29 1.37 1.37 1.26 1.26 1.32 1.28 1.17 1.17 1.20 1.25 1.26
0.33 0.24 0.17 0.20 0.16 0.16 0.26 0.30 0.32 0.29 0.28 0.39 0.50 0.31 0.40 0.76 1.19 1.32 1.44 1.51 1.62 1.54 1.61 1.70 1.78 1.83 1.86 1.92 2.03 2.16 1.92 1.66 1.50 1.53 1.47 1.44 1.43 1.46 1.43 1.41 1.42 1.28 1.31 1.32 1.12 1.16 1.23 1.23 1.24
0.44 0.20 0.14 0.17 0.18 0.21 0.29 0.29 0.36 0.38 0.33 0.37 0.39 0.43 0.53 0.71 1.05 1.05 1.18 1.29 1.41 1.47 1.52 1.65 1.67 1.73 1.75 1.84 1.92 2.14 2.11 1.94 1.65 1.57 1.59 1.52 1.58 1.61 1.46 1.41 1.50 1.34 1.44 1.27 1.12 1.09 1.16 1.13 1.16
0.28 0.18 0.17 0.26 0.27 0.23 0.28 0.30 0.33 0.33 0.34 0.35 0.38 0.45 0.48 0.64 0.80 0.75 0.85 1.02 1.18 1.24 1.30 1.44 1.55 1.60 1.66 1.68 1.86 2.00 2.02 2.06 2.03 1.69 1.73 1.66 1.66 1.67 1.47 1.34 1.55 1.37 1.31 1.23 1.12 1.03 0.98 0.96 0.96
0.33 0.21 0.27 0.29 0.31 0.32 0.32 0.35 0.39 0.35 0.32 0.39 0.39 0.44 0.50 0.51 0.52 0.58 0.70 0.81 1.03 1.19 1.24 1.27 1.35 1.47 1.56 1.57 1.68 1.80 1.93 1.91 1.96 1.91 1.83 1.73 1.67 1.60 1.42 1.27 1.53 1.39 1.17 1.11 1.03 0.95 0.86 0.85 0.88
0.26 0.32 0.34 0.35 0.39 0.39 0.36 0.40 0.37 0.40 0.41 0.50 0.51 0.54 0.56 0.55 0.54 0.53 0.56 0.61 0.75 0.97 1.11 1.22 1.28 1.29 1.36 1.40 1.34 1.46 1.59 1.95 1.73 1.92 1.85 1.73 1.63 1.50 1.30 1.23 1.46 1.30 1.11 1.00 0.91 0.85 0.86 0.86 0.89
0.32 0.34 0.38 0.40 0.41 0.41 0.42 0.39 0.39 0.41 0.50 0.56 0.57 0.59 0.58 0.60 0.61 0.64 0.63 0.63 0.64 0.70 0.89 1.05 1.18 1.23 1.22 1.21 1.23 1.26 1.32 1.50 1.55 1.69 1.86 1.78 1.61 1.39 1.23 1.29 1.33 1.18 1.09 0.94 0.84 0.87 0.80 0.83 0.85
0.37 0.37 0.37 0.39 0.37 0.38 0.36 0.39 0.42 0.46 0.55 0.54 0.56 0.58 0.62 0.63 0.65 0.67 0.68 0.67 0.65 0.64 0.62 0.81 0.97 1.09 1.14 1.11 1.12 1.18 1.26 1.38 1.43 1.58 1.74 1.78 1.60 1.36 1.31 1.34 1.24 1.10 1.01 0.89 0.88 0.89 0.80 0.82 0.84
0.37 0.28 0.32 0.32 0.34 0.34 0.39 0.33 0.35 0.50 0.54 0.52 0.55 0.60 0.65 0.67 0.71 0.70 0.72 0.71 0.72 0.73 0.72 0.66 0.78 0.91 1.07 1.16 1.22 1.29 1.37 1.58 1.52 1.59 1.75 1.76 1.56 1.36 1.39 1.30 1.17 1.04 0.98 0.88 0.93 0.95 0.88 0.83 0.86
0.25 0.26 0.19 0.27 0.29 0.34 0.36 0.23 0.38 0.52 0.50 0.48 0.54 0.58 0.61 0.64 0.68 0.70 0.74 0.76 0.78 0.76 0.76 0.82 0.78 0.84 1.07 1.12 1.12 1.19 1.40 1.67 1.85 1.82 1.79 1.68 1.53 1.41 1.33 1.22 1.09 1.03 0.94 0.90 0.94 0.96 0.90 0.83 0.84
0.23 0.15 0.17 0.19 0.28 0.29 0.33 0.26 0.38 0.49 0.47 0.47 0.52 0.56 0.58 0.61 0.68 0.74 0.76 0.79 0.79 0.79 0.78 0.80 0.89 0.92 1.05 1.11 1.10 1.17 1.27 1.46 1.74 1.81 1.73 1.66 1.51 1.39 1.31 1.17 1.14 1.05 0.91 0.92 0.96 1.00 0.95 0.87 0.86
0.17 0.16 0.18 0.18 0.23 0.27 0.27 0.29 0.39 0.44 0.47 0.49 0.54 0.59 0.63 0.67 0.72 0.81 0.84 0.85 0.84 0.81 0.82 0.83 0.91 1.01 1.10 1.11 1.23 1.27 1.25 1.39 1.60 1.79 1.71 1.59 1.48 1.46 1.29 1.22 1.11 1.01 0.89 0.94 1.00 1.02 1.02 0.98 0.90
0.25 0.21 0.18 0.20 0.25 0.27 0.29 0.30 0.38 0.44 0.48 0.50 0.55 0.58 0.63 0.67 0.75 0.79 0.81 0.85 0.88 0.83 0.83 0.89 0.90 1.04 1.11 1.13 1.15 1.30 1.25 1.40 1.55 1.75 1.71 1.57 1.53 1.46 1.37 1.14 1.06 0.97 0.91 0.94 1.00 1.04 1.00 0.97 0.96
0.25 0.21 0.18 0.21 0.28 0.30 0.27 0.26 0.37 0.45 0.49 0.52 0.54 0.61 0.62 0.68 0.70 0.74 0.76 0.76 0.86 0.84 0.89 0.96 0.98 1.08 1.14 1.16 1.32 1.40 1.40 1.55 1.61 1.72 1.64 1.57 1.59 1.54 1.37 1.07 1.00 0.95 0.94 0.98 0.97 1.00 0.97 0.97 0.98
0.23 0.21 0.18 0.19 0.26 0.31 0.30 0.25 0.31 0.43 0.47 0.51 0.61 0.65 0.74 0.74 0.70 0.71 0.76 0.79 0.89 0.92 0.96 0.99 1.10 1.11 1.18 1.26 1.38 1.44 1.56 1.60 1.53 1.60 1.48 1.52 1.59 1.63 1.47 1.10 0.98 0.95 0.93 0.89 0.95 1.01 0.98 0.88 0.93
0.19 0.24 0.23 0.23 0.23 0.18 0.31 0.16 0.28 0.36 0.38 0.46 0.58 0.63 0.72 0.73 0.74 0.79 0.84 0.92 0.94 0.96 1.05 1.09 1.14 1.18 1.24 1.33 1.36 1.39 1.41 1.39 1.45 1.43 1.33 1.39 1.57 1.65 1.56 1.22 1.12 1.01 0.94 0.89 0.94 0.99 0.99 0.94 0.87
0.23 0.27 0.26 0.28 0.26 0.26 0.26 0.22 0.24 0.33 0.30 0.40 0.53 0.62 0.74 0.79 0.85 0.90 0.91 0.92 0.97 1.01 1.05 1.12 1.18 1.23 1.27 1.35 1.45 1.43 1.43 1.51 1.52 1.49 1.45 1.41 1.47 1.59 1.55 1.33 1.17 1.14 1.09 0.98 0.98 0.96 0.97 0.97 0.90
0.30 0.27 0.28 0.31 0.30 0.19 0.24 0.22 0.19 0.24 0.29 0.41 0.53 0.67 0.75 0.82 0.85 0.89 0.94 0.98 0.98 1.07 1.12 1.16 1.19 1.25 1.34 1.42 1.45 1.37 1.37 1.42 1.45 1.37 1.38 1.39 1.42 1.52 1.58 1.48 1.33 1.20 1.07 0.97 0.95 0.98 0.96 0.92 0.90
0.28 0.22 0.15 0.16 0.19 0.15 0.27 0.22 0.21 0.30 0.36 0.46 0.50 0.64 0.74 0.83 0.86 0.89 0.92 0.93 0.96 1.02 1.09 1.11 1.10 1.08 1.18 1.22 1.23 1.29 1.29 1.34 1.37 1.36 1.28 1.25 1.36 1.46 1.46 1.52 1.42 1.31 1.15 1.01 0.94 0.95 0.92 0.90 0.88
0.26 0.22 0.16 0.11 0.12 0.14 0.26 0.16 0.20 0.35 0.40 0.53 0.58 0.67 0.73 0.80 0.85 0.89 0.93 0.99 1.01 1.04 1.06 1.08 1.10 1.08 1.09 1.10 1.16 1.23 1.33 1.36 1.35 1.34 1.29 1.32 1.35 1.42 1.46 1.46 1.45 1.31 1.16 1.07 0.99 0.92 0.91 0.91 0.90
0.28 0.23 0.27 0.21 0.24 0.19 0.19 0.24 0.31 0.36 0.35 0.48 0.55 0.57 0.67 0.75 0.83 0.87 0.93 0.97 1.01 1.05 1.06 1.03 1.02 1.01 1.00 0.99 1.04 1.07 1.16 1.21 1.22 1.29 1.33 1.36 1.36 1.39 1.39 1.42 1.38 1.31 1.20 1.10 1.05 1.01 0.99 0.99 0.98
0.29 0.31 0.22 0.23 0.14 0.12 0.15 0.16 0.16 0.22 0.23 0.44 0.52 0.54 0.60 0.68 0.72 0.78 0.86 0.91 0.96 0.97 0.98 1.00 1.01 0.97 0.98 1.02 1.03 1.07 1.08 1.09 1.14 1.21 1.22 1.34 1.33 1.34 1.32 1.32 1.31 1.27 1.23 1.15 1.10 1.06 1.06 1.03 1.03
0.28 0.25 0.25 0.25 0.22 0.14 0.13 0.14 0.25 0.23 0.25 0.40 0.51 0.58 0.62 0.65 0.68 0.73 0.77 0.81 0.85 0.88 0.93 0.93 0.96 1.00 1.04 1.09 1.08 1.08 1.09 1.11 1.16 1.18 1.26 1.27 1.32 1.33 1.30 1.30 1.29 1.27 1.24 1.22 1.17 1.15 1.13 1.08 1.08
0.31 0.26 0.26 0.18 0.19 0.22 0.20 0.18 0.30 0.29 0.30 0.45 0.52 0.60 0.68 0.72 0.77 0.81 0.84 0.86 0.84 0.84 0.87 0.89 0.98 1.02 1.08 1.14 1.14 1.13 1.15 1.20 1.21 1.18 1.25 1.27 1.27 1.28 1.29 1.28 1.25 1.23 1.23 1.21 1.17 1.14 1.14 1.09 1.06

GFSSGP_prec_pwat_141.txt.gz
Precipitable_Water
0.78 0.91 1.02 0.80 0.38 0.30 0.26 0.29 0.49 0.45 0.43 0.47 0.54 0.60 0.63 0.73 0.84 0.78 1.52 1.54 1.45 1.41 1.70 1.76 1.76 1.58 1.46 1.45 1.41 1.30 1.29 1.29 1.30 1.23 1.17 1.04 1.04 1.17 1.29 1.32 1.45 1.61 1.55 1.56 1.63 1.63 1.62 1.65 1.55
0.66 0.86 0.79 0.59 0.26 0.23 0.24 0.39 0.37 0.41 0.45 0.51 0.55 0.64 0.66 0.97 1.06 1.17 1.28 1.40 1.53 1.42 1.73 1.72 1.73 1.64 1.57 1.54 1.50 1.43 1.44 1.53 1.44 1.31 1.19 1.08 1.04 1.10 1.22 1.35 1.48 1.62 1.55 1.53 1.60 1.52 1.56 1.51 1.44
0.56 0.75 0.58 0.40 0.28 0.21 0.23 0.38 0.39 0.36 0.43 0.48 0.50 0.61 0.85 1.03 1.08 1.16 1.36 1.39 1.32 1.35 1.70 1.73 1.67 1.65 1.62 1.75 1.67 1.57 1.61 1.61 1.50 1.36 1.27 1.10 1.04 1.10 1.18 1.28 1.42 1.45 1.47 1.44 1.47 1.40 1.41 1.29 1.22
0.57 0.60 0.50 0.28 0.24 0.30 0.26 0.42 0.35 0.29 0.42 0.46 0.49 0.47 0.85 1.05 1.10 1.29 1.44 1.36 1.23 1.33 1.66 1.78 1.68 1.69 1.74 1.73 1.77 1.64 1.59 1.63 1.55 1.49 1.29 1.17 1.08 1.12 1.21 1.26 1.34 1.34 1.30 1.30 1.30 1.29 1.29 1.20 1.18
0.67 0.62 0.33 0.25 0.24 0.31 0.36 0.40 0.29 0.24 0.30 0.33 0.44 0.47 0.73 1.07 1.20 1.35 1.44 1.36 1.23 1.35 1.66 1.71 1.71 1.70 1.74 1.76 1.77 1.72 1.68 1.66 1.60 1.55 1.38 1.19 1.10 1.16 1.22 1.25 1.35 1.28 1.37 1.35 1.36 1.34 1.43 1.32 1.29
0.46 0.40 0.21 0.19 0.22 0.27 0.30 0.33 0.26 0.24 0.26 0.29 0.29 0.38 0.68 1.03 1.10 1.30 1.43 1.43 1.30 1.41 1.56 1.64 1.72 1.72 1.75 1.76 1.79 1.78 1.79 1.76 1.63 1.56 1.42 1.29 1.16 1.22 1.32 1.35 1.39 1.33 1.40 1.35 1.36 1.43 1.54 1.44 1.43
0.38 0.28 0.18 0.18 0.18 0.20 0.24 0.32 0.24 0.27 0.28 0.28 0.33 0.27 0.57 0.85 1.04 1.27 1.42 1.54 1.51 1.46 1.50 1.73 1.72 1.69 1.76 1.81 1.89 1.84 1.79 1.83 1.75 1.60 1.48 1.36 1.24 1.22 1.32 1.38 1.34 1.36 1.39 1.33 1.33 1.45 1.42 1.43 1.32
0.40 0.29 0.19 0.19 0.18 0.21 0.30 0.28 0.30 0.27 0.27 0.38 0.33 0.29 0.38 0.73 0.83 1.10 1.31 1.41 1.55 1.48 1.49 1.66 1.67 1.74 1.75 1.79 1.86 2.02 1.93 1.91 1.87 1.72 1.60 1.44 1.30 1.24 1.33 1.34 1.36 1.39 1.39 1.35 1.26 1.47 1.34 1.36 1.25
0.43 0.25 0.20 0.24 0.24 0.23 0.32 0.24 0.34 0.36 0.28 0.34 0.37 0.35 0.48 0.50 0.67 0.83 0.97 1.14 1.29 1.48 1.53 1.68 1.61 1.68 1.82 1.83 1.80 1.84 2.06 2.03 2.01 1.87 1.74 1.62 1.37 1.28 1.29 1.34 1.40 1.53 1.51 1.38 1.23 1.24 1.39 1.27 1.23
0.33 0.27 0.25 0.30 0.29 0.26 0.30 0.28 0.30 0.32 0.32 0.35 0.38 0.42 0.46 0.49 0.54 0.61 0.77 0.83 1.07 1.15 1.37 1.58 1.62 1.64 1.77 1.79 1.91 1.96 1.90 1.99 2.03 1.95 1.88 1.77 1.56 1.39 1.37 1.52 1.44 1.46 1.54 1.37 1.21 1.29 1.30 1.19 1.15
0.37 0.24 0.33 0.29 0.30 0.30 0.29 0.30 0.33 0.32 0.31 0.38 0.38 0.43 0.45 0.48 0.51 0.50 0.54 0.65 0.78 1.08 1.22 1.41 1.57 1.64 1.68 1.78 1.76 1.82 1.85 1.84 1.93 2.00 1.95 1.96 1.77 1.64 1.65 1.60 1.51 1.63 1.64 1.39 1.16 1.19 1.15 1.20 1.12
0.27 0.32 0.30 0.35 0.34 0.34 0.33 0.39 0.36 0.37 0.38 0.48 0.45 0.48 0.49 0.50 0.53 0.55 0.57 0.59 0.62 0.70 0.95 1.34 1.41 1.48 1.62 1.70 1.69 1.66 1.68 1.73 1.75 1.92 1.84 1.85 1.89 1.77 1.67 1.70 1.57 1.66 1.67 1.33 1.05 1.00 0.97 0.98 1.00
0.29 0.33 0.36 0.37 0.36 0.37 0.41 0.37 0.37 0.38 0.44 0.48 0.49 0.50 0.50 0.53 0.56 0.60 0.65 0.68 0.70 0.67 0.74 0.99 1.33 1.45 1.49 1.50 1.58 1.62 1.57 1.63 1.68 1.63 1.49 1.50 1.79 1.79 1.73 1.80 1.73 1.58 1.62 1.29 1.02 0.95 0.90 0.88 0.94
0.41 0.37 0.37 0.38 0.38 0.40 0.35 0.35 0.39 0.39 0.46 0.45 0.47 0.49 0.53 0.55 0.58 0.61 0.64 0.66 0.70 0.76 0.77 0.79 0.90 1.25 1.48 1.42 1.42 1.48 1.52 1.57 1.51 1.47 1.31 1.29 1.37 1.45 1.59 1.78 1.75 1.54 1.48 1.21 0.95 0.88 0.89 0.96 0.98
0.38 0.31 0.32 0.31 0.35 0.36 0.39 0.30 0.32 0.42 0.46 0.43 0.46 0.50 0.55 0.57 0.61 0.61 0.66 0.68 0.72 0.73 0.81 0.82 0.82 0.87 1.16 1.35 1.40 1.38 1.35 1.40 1.47 1.37 1.33 1.25 1.24 1.31 1.61 1.62 1.80 1.67 1.53 1.13 0.88 0.86 0.90 0.91 0.93
0.31 0.30 0.21 0.31 0.33 0.34 0.34 0.20 0.32 0.45 0.43 0.40 0.46 0.51 0.55 0.58 0.63 0.69 0.74 0.77 0.79 0.81 0.76 0.83 0.88 0.85 0.90 1.16 1.25 1.28 1.30 1.34 1.35 1.30 1.30 1.31 1.39 1.48 1.63 1.54 1.60 1.53 1.50 1.14 0.86 0.82 0.86 0.88 0.91
0.31 0.20 0.24 0.26 0.32 0.28 0.31 0.23 0.31 0.44 0.40 0.39 0.45 0.50 0.54 0.59 0.67 0.74 0.79 0.83 0.85 0.89 0.88 0.82 0.87 0.87 0.94 1.04 1.14 1.13 1.18 1.23 1.25 1.21 1.32 1.45 1.43 1.55 1.59 1.53 1.63 1.36 1.46 1.17 0.92 0.83 0.86 0.86 0.90
0.26 0.26 0.24 0.23 0.27 0.30 0.24 0.23 0.28 0.34 0.41 0.40 0.44 0.49 0.55 0.62 0.65 0.74 0.82 0.86 0.89 0.93 0.92 0.94 0.87 0.88 1.00 1.10 1.11 1.10 1.10 1.12 1.19 1.27 1.33 1.44 1.58 1.56 1.63 1.58 1.57 1.33 1.42 1.16 1.00 0.84 0.85 0.86 0.87
0.32 0.30 0.26 0.29 0.28 0.25 0.21 0.23 0.30 0.36 0.41 0.42 0.47 0.52 0.57 0.59 0.71 0.76 0.79 0.81 0.84 0.89 0.87 0.92 0.92 0.86 1.03 1.06 1.04 1.01 0.95 1.08 1.20 1.31 1.33 1.49 1.63 1.61 1.59 1.58 1.48 1.37 1.36 1.17 1.05 0.92 0.82 0.85 0.87
0.33 0.27 0.27 0.29 0.29 0.25 0.22 0.22 0.27 0.33 0.37 0.42 0.48 0.51 0.55 0.63 0.71 0.79 0.86 0.90 0.88 0.85 0.88 0.94 0.92 0.93 1.03 1.09 1.12 1.11 1.10 1.17 1.27 1.39 1.40 1.58 1.62 1.61 1.55 1.53 1.39 1.39 1.33 1.18 1.09 0.98 0.85 0.84 0.86
0.29 0.27 0.28 0.25 0.27 0.25 0.24 0.23 0.30 0.36 0.40 0.45 0.48 0.53 0.61 0.68 0.73 0.81 0.85 0.92 0.97 0.94 0.99 1.02 1.02 1.04 1.08 1.09 1.18 1.14 1.18 1.21 1.23 1.36 1.44 1.54 1.59 1.53 1.49 1.45 1.33 1.39 1.36 1.18 1.12 1.04 0.93 0.81 0.86
0.26 0.32 0.31 0.26 0.22 0.18 0.33 0.17 0.28 0.38 0.35 0.39 0.45 0.52 0.64 0.72 0.78 0.83 0.88 0.91 0.99 1.06 1.11 1.12 1.08 1.04 1.10 1.12 1.18 1.18 1.12 1.09 1.25 1.36 1.47 1.53 1.55 1.51 1.46 1.40 1.37 1.44 1.34 1.19 1.11 1.09 1.02 0.94 0.83
0.31 0.34 0.30 0.27 0.24 0.23 0.24 0.24 0.26 0.37 0.29 0.35 0.43 0.52 0.65 0.72 0.77 0.82 0.89 0.94 1.01 1.09 1.14 1.18 1.14 1.14 1.20 1.22 1.28 1.26 1.17 1.24 1.35 1.43 1.46 1.50 1.53 1.49 1.43 1.35 1.43 1.33 1.21 1.16 1.15 1.12 1.06 1.01 0.94
0.37 0.33 0.32 0.30 0.26 0.18 0.25 0.27 0.21 0.31 0.27 0.34 0.41 0.54 0.64 0.70 0.77 0.85 0.92 0.99 1.02 1.07 1.08 1.08 1.08 1.12 1.21 1.31 1.23 1.33 1.31 1.35 1.30 1.40 1.39 1.43 1.41 1.44 1.42 1.33 1.35 1.22 1.14 1.15 1.19 1.15 1.09 1.07 1.04
0.33 0.28 0.22 0.22 0.24 0.20 0.34 0.25 0.22 0.36 0.33 0.32 0.41 0.53 0.63 0.71 0.76 0.81 0.86 0.91 0.99 1.03 1.07 1.11 1.14 1.14 1.20 1.24 1.24 1.22 1.23 1.28 1.34 1.36 1.42 1.40 1.36 1.41 1.44 1.34 1.33 1.16 1.13 1.16 1.14 1.11 1.09 1.13 1.09
0.30 0.28 0.23 0.16 0.20 0.24 0.30 0.17 0.24 0.35 0.39 0.39 0.46 0.55 0.62 0.68 0.74 0.80 0.86 0.89 0.98 1.04 1.08 1.10 1.07 1.11 1.18 1.17 1.21 1.21 1.21 1.23 1.42 1.36 1.38 1.40 1.41 1.47 1.53 1.47 1.34 1.15 1.09 1.02 1.04 1.07 1.08 1.17 1.13
0.30 0.26 0.30 0.25 0.26 0.20 0.20 0.24 0.32 0.35 0.36 0.36 0.44 0.52 0.56 0.63 0.72 0.78 0.86 0.91 0.94 0.97 1.02 1.05 1.09 1.12 1.16 1.22 1.23 1.23 1.29 1.33 1.34 1.38 1.43 1.39 1.42 1.42 1.45 1.45 1.42 1.35 1.25 1.17 1.13 1.09 1.10 1.16 1.16
0.33 0.36 0.24 0.26 0.18 0.17 0.19 0.20 0.21 0.28 0.29 0.32 0.41 0.48 0.55 0.61 0.66 0.75 0.81 0.88 0.94 0.98 0.97 0.99 1.06 1.04 1.06 1.08 1.12 1.16 1.22 1.28 1.35 1.35 1.33 1.35 1.38 1.40 1.41 1.41 1.40 1.38 1.36 1.32 1.24 1.15 1.10 1.07 1.08
0.31 0.29 0.29 0.30 0.24 0.19 0.16 0.18 0.25 0.28 0.28 0.29 0.40 0.50 0.57 0.61 0.62 0.67 0.77 0.84 0.88 0.90 0.90 0.93 0.94 0.96 1.02 1.05 1.08 1.08 1.12 1.16 1.20 1.20 1.25 1.33 1.39 1.38 1.38 1.40 1.40 1.38 1.34 1.33 1.26 1.17 1.13 1.10 1.09
0.35 0.30 0.29 0.22 0.22 0.22 0.19 0.21 0.29 0.31 0.30 0.30 0.43 0.51 0.58 0.64 0.66 0.68 0.70 0.75 0.77 0.82 0.85 0.89 0.96 1.00 1.05 1.07 1.06 1.05 1.09 1.15 1.17 1.18 1.20 1.25 1.21 1.30 1.31 1.34 1.33 1.33 1.34 1.34 1.30 1.25 1.21 1.14 1.08

GFSSGP_prec_pwat_144.txt.gz
Precipitable_Water
0.74 0.78 0.96 0.84 0.42 0.35 0.28 0.39 0.55 0.52 0.44 0.49 0.50 0.53 0.59 0.83 0.81 0.76 1.52 1.60 1.49 1.50 1.67 1.62 1.61 1.48 1.38 1.40 1.33 1.30 1.28 1.23 1.17 1.18 1.16 1.15 1.19 1.20 1.24 1.34 1.59 1.65 1.55 1.60 1.77 1.73 1.60 1.55 1.48
0.59 0.69 0.75 0.67 0.30 0.28 0.31 0.43 0.41 0.47 0.47 0.50 0.55 0.55 0.60 0.83 1.08 1.17 1.25 1.42 1.44 1.53 1.68 1.61 1.63 1.53 1.37 1.43 1.45 1.34 1.33 1.42 1.38 1.24 1.15 1.11 1.18 1.31 1.30 1.39 1.55 1.63 1.59 1.57 1.63 1.65 1.53 1.46 1.39
0.46 0.69 0.62 0.50 0.32 0.23 0.30 0.44 0.48 0.46 0.42 0.46 0.48 0.57 0.82 1.08 1.18 1.18 1.35 1.35 1.35 1.52 1.66 1.59 1.62 1.61 1.43 1.46 1.50 1.49 1.51 1.54 1.46 1.33 1.22 1.13 1.11 1.24 1.30 1.44 1.49 1.51 1.49 1.47 1.50 1.42 1.36 1.25 1.19
0.53 0.59 0.56 0.38 0.30 0.34 0.32 0.46 0.43 0.31 0.38 0.46 0.46 0.43 0.87 1.08 1.08 1.27 1.39 1.27 1.28 1.49 1.60 1.57 1.61 1.64 1.54 1.58 1.63 1.58 1.68 1.72 1.52 1.45 1.32 1.13 1.13 1.17 1.26 1.36 1.48 1.46 1.37 1.34 1.31 1.24 1.21 1.19 1.24
0.68 0.69 0.41 0.31 0.28 0.34 0.41 0.43 0.38 0.26 0.29 0.37 0.40 0.40 0.83 1.07 1.29 1.25 1.35 1.24 1.21 1.42 1.55 1.55 1.64 1.62 1.68 1.65 1.65 1.67 1.67 1.68 1.65 1.49 1.41 1.23 1.13 1.19 1.25 1.28 1.42 1.36 1.35 1.34 1.32 1.28 1.25 1.24 1.28
0.53 0.45 0.30 0.24 0.28 0.32 0.36 0.40 0.32 0.25 0.26 0.28 0.27 0.30 0.74 1.14 1.15 1.17 1.38 1.28 1.30 1.41 1.62 1.65 1.57 1.57 1.62 1.68 1.69 1.63 1.69 1.72 1.73 1.60 1.42 1.33 1.21 1.26 1.29 1.24 1.36 1.35 1.40 1.42 1.39 1.51 1.52 1.46 1.48
0.46 0.40 0.24 0.23 0.23 0.26 0.28 0.32 0.28 0.26 0.29 0.29 0.34 0.27 0.71 0.87 1.01 1.15 1.31 1.43 1.41 1.42 1.66 1.64 1.65 1.57 1.63 1.67 1.72 1.75 1.73 1.74 1.81 1.69 1.54 1.38 1.31 1.40 1.38 1.35 1.38 1.37 1.44 1.40 1.51 1.57 1.52 1.44 1.41
0.46 0.35 0.22 0.23 0.19 0.21 0.32 0.32 0.31 0.28 0.26 0.40 0.37 0.27 0.40 0.70 0.93 1.00 1.18 1.23 1.42 1.43 1.54 1.73 1.83 1.65 1.65 1.64 1.68 1.80 1.83 1.81 1.83 1.79 1.66 1.51 1.27 1.38 1.48 1.45 1.34 1.37 1.40 1.40 1.37 1.59 1.46 1.35 1.24
0.42 0.26 0.21 0.27 0.27 0.29 0.34 0.29 0.33 0.37 0.28 0.31 0.35 0.33 0.46 0.54 0.66 0.73 0.84 0.93 1.07 1.32 1.52 1.55 1.66 1.63 1.74 1.72 1.69 1.77 1.76 1.86 1.94 1.91 1.82 1.70 1.41 1.32 1.32 1.40 1.38 1.41 1.49 1.40 1.32 1.53 1.41 1.29 1.23
0.33 0.26 0.30 0.34 0.34 0.29 0.32 0.30 0.30 0.33 0.31 0.30 0.34 0.40 0.43 0.44 0.45 0.51 0.72 0.80 0.89 1.00 1.26 1.52 1.55 1.57 1.72 1.70 1.83 1.88 1.86 1.80 1.90 2.01 1.89 1.86 1.64 1.44 1.27 1.32 1.45 1.60 1.53 1.47 1.26 1.32 1.34 1.24 1.17
0.39 0.26 0.36 0.34 0.33 0.31 0.29 0.29 0.32 0.27 0.27 0.35 0.37 0.44 0.47 0.45 0.47 0.47 0.49 0.63 0.66 0.83 1.05 1.22 1.37 1.51 1.59 1.66 1.75 1.82 1.88 1.92 1.90 1.95 1.95 1.98 1.86 1.73 1.55 1.44 1.47 1.60 1.60 1.42 1.32 1.37 1.34 1.09 1.13
0.32 0.33 0.36 0.32 0.36 0.32 0.29 0.32 0.32 0.36 0.35 0.45 0.48 0.48 0.45 0.46 0.50 0.52 0.52 0.55 0.59 0.63 0.68 1.03 1.22 1.31 1.54 1.64 1.68 1.71 1.79 1.83 1.69 1.82 1.83 1.83 1.85 1.85 1.74 1.75 1.58 1.54 1.67 1.47 1.20 1.24 1.18 1.27 1.07
0.34 0.31 0.35 0.38 0.37 0.35 0.36 0.32 0.34 0.35 0.43 0.48 0.49 0.47 0.46 0.49 0.50 0.55 0.59 0.61 0.62 0.63 0.68 0.74 1.10 1.23 1.38 1.47 1.57 1.60 1.66 1.70 1.73 1.69 1.67 1.60 1.55 1.58 1.77 1.84 1.81 1.69 1.66 1.53 1.15 1.00 0.96 0.98 0.96
0.40 0.39 0.38 0.40 0.38 0.38 0.35 0.35 0.36 0.36 0.44 0.44 0.47 0.46 0.50 0.53 0.55 0.57 0.58 0.58 0.62 0.67 0.71 0.76 0.81 1.04 1.28 1.38 1.47 1.46 1.56 1.64 1.63 1.62 1.59 1.48 1.36 1.27 1.38 1.60 1.85 1.77 1.70 1.54 1.20 0.94 0.85 0.90 0.98
0.36 0.29 0.33 0.34 0.35 0.35 0.38 0.30 0.30 0.38 0.43 0.41 0.46 0.48 0.51 0.56 0.59 0.59 0.61 0.64 0.68 0.70 0.74 0.80 0.82 0.89 0.96 1.25 1.41 1.48 1.43 1.47 1.57 1.55 1.54 1.38 1.25 1.08 1.27 1.55 1.82 1.83 1.63 1.48 1.20 0.94 0.93 0.91 0.93
0.31 0.31 0.24 0.32 0.33 0.36 0.34 0.19 0.29 0.38 0.41 0.41 0.45 0.46 0.54 0.58 0.62 0.65 0.69 0.72 0.78 0.79 0.78 0.83 0.86 0.87 0.91 1.05 1.23 1.32 1.42 1.38 1.42 1.45 1.46 1.42 1.31 1.22 1.23 1.25 1.66 1.83 1.62 1.42 1.16 0.91 0.86 0.87 0.90
0.33 0.24 0.25 0.30 0.36 0.32 0.32 0.24 0.32 0.39 0.41 0.40 0.41 0.45 0.51 0.57 0.62 0.67 0.76 0.80 0.82 0.83 0.84 0.86 0.93 0.93 0.93 1.00 1.14 1.20 1.26 1.32 1.35 1.38 1.37 1.34 1.23 1.24 1.32 1.33 1.59 1.77 1.57 1.36 1.16 0.93 0.82 0.83 0.88
0.28 0.29 0.30 0.26 0.30 0.32 0.28 0.26 0.27 0.29 0.34 0.38 0.42 0.45 0.48 0.54 0.62 0.72 0.78 0.80 0.81 0.85 0.90 0.93 0.96 1.00 0.97 1.06 1.22 1.15 1.16 1.19 1.27 1.29 1.32 1.29 1.27 1.31 1.44 1.50 1.62 1.65 1.46 1.28 1.23 1.04 0.90 0.88 0.89
0.33 0.30 0.29 0.32 0.33 0.29 0.26 0.25 0.24 0.28 0.35 0.38 0.44 0.46 0.51 0.56 0.67 0.77 0.79 0.82 0.85 0.85 0.85 0.92 0.97 1.01 1.00 1.06 1.13 1.10 1.09 1.08 1.15 1.19 1.30 1.31 1.39 1.43 1.53 1.60 1.60 1.52 1.41 1.26 1.21 1.12 0.97 0.86 0.89
0.34 0.31 0.29 0.30 0.33 0.29 0.27 0.24 0.25 0.26 0.31 0.37 0.41 0.47 0.51 0.57 0.66 0.73 0.80 0.84 0.89 0.96 0.92 0.88 0.86 0.94 1.01 1.08 1.21 1.15 1.16 1.18 1.16 1.20 1.23 1.36 1.42 1.46 1.53 1.55 1.53 1.47 1.40 1.26 1.19 1.08 0.97 0.90 0.87
0.33 0.29 0.28 0.27 0.32 0.31 0.26 0.22 0.27 0.33 0.35 0.43 0.45 0.48 0.54 0.59 0.65 0.73 0.81 0.86 0.91 0.95 0.99 1.02 0.98 1.00 1.02 1.17 1.20 1.22 1.19 1.21 1.11 1.13 1.19 1.30 1.41 1.49 1.55 1.53 1.53 1.47 1.44 1.19 1.21 1.14 1.03 0.86 0.87
0.28 0.34 0.32 0.30 0.28 0.20 0.28 0.16 0.22 0.32 0.38 0.43 0.41 0.46 0.55 0.63 0.70 0.76 0.83 0.86 0.93 1.04 1.14 1.09 1.07 1.02 1.13 1.27 1.15 1.10 1.04 1.01 1.08 1.15 1.22 1.32 1.39 1.53 1.67 1.58 1.53 1.51 1.43 1.18 1.21 1.17 1.08 0.94 0.81
0.29 0.36 0.33 0.31 0.27 0.24 0.23 0.20 0.21 0.32 0.34 0.40 0.41 0.46 0.57 0.65 0.71 0.76 0.84 0.89 0.97 1.04 1.14 1.19 1.12 1.09 1.15 1.12 1.11 1.10 1.07 1.11 1.09 1.15 1.20 1.32 1.43 1.52 1.61 1.57 1.49 1.44 1.35 1.27 1.28 1.17 1.15 1.02 0.92
0.38 0.35 0.33 0.31 0.28 0.19 0.22 0.23 0.22 0.31 0.35 0.39 0.43 0.49 0.57 0.64 0.71 0.80 0.89 0.95 0.96 1.06 1.08 1.11 1.10 1.11 1.15 1.14 1.17 1.14 1.11 1.18 1.13 1.14 1.12 1.25 1.38 1.50 1.54 1.47 1.47 1.47 1.41 1.35 1.27 1.23 1.17 1.08 1.01
0.36 0.30 0.22 0.21 0.23 0.19 0.32 0.26 0.26 0.35 0.39 0.40 0.39 0.45 0.57 0.64 0.70 0.77 0.85 0.89 0.95 1.01 1.08 1.12 1.13 1.09 1.16 1.21 1.26 1.22 1.14 1.12 1.10 1.19 1.18 1.29 1.39 1.39 1.44 1.43 1.38 1.42 1.39 1.36 1.32 1.26 1.20 1.14 1.09
0.33 0.30 0.22 0.16 0.20 0.24 0.35 0.23 0.25 0.35 0.40 0.43 0.44 0.50 0.58 0.60 0.69 0.76 0.83 0.87 0.94 0.98 1.04 1.07 1.10 1.17 1.21 1.24 1.23 1.20 1.14 1.12 1.23 1.28 1.24 1.31 1.41 1.40 1.41 1.38 1.34 1.32 1.32 1.32 1.30 1.29 1.24 1.20 1.10
0.36 0.29 0.33 0.27 0.26 0.21 0.23 0.27 0.33 0.39 0.40 0.39 0.40 0.49 0.52 0.56 0.64 0.72 0.82 0.88 0.91 0.97 1.03 1.05 1.07 1.10 1.16 1.19 1.23 1.22 1.16 1.15 1.24 1.33 1.35 1.37 1.44 1.44 1.41 1.40 1.32 1.31 1.24 1.19 1.18 1.17 1.11 1.17 1.22
0.38 0.41 0.29 0.28 0.18 0.17 0.20 0.22 0.23 0.31 0.33 0.36 0.36 0.45 0.52 0.56 0.60 0.70 0.78 0.85 0.91 0.94 0.97 1.00 1.05 1.07 1.11 1.13 1.16 1.16 1.15 1.16 1.25 1.35 1.34 1.35 1.40 1.42 1.43 1.40 1.34 1.33 1.23 1.18 1.17 1.13 1.10 1.07 1.08
0.34 0.33 0.34 0.32 0.26 0.19 0.18 0.21 0.29 0.32 0.34 0.32 0.36 0.47 0.52 0.55 0.59 0.64 0.73 0.81 0.86 0.89 0.87 0.88 0.92 0.94 0.98 1.01 1.03 1.08 1.14 1.20 1.29 1.24 1.29 1.35 1.36 1.36 1.36 1.36 1.37 1.34 1.30 1.26 1.20 1.15 1.15 1.15 1.17
0.38 0.34 0.35 0.28 0.24 0.24 0.23 0.20 0.28 0.37 0.36 0.37 0.36 0.49 0.56 0.59 0.61 0.65 0.67 0.76 0.80 0.83 0.83 0.86 0.92 0.96 1.03 1.05 1.04 1.05 1.11 1.15 1.19 1.16 1.20 1.30 1.32 1.34 1.35 1.36 1.35 1.36 1.36 1.35 1.29 1.25 1.23 1.18 1.15

GFSSGP_prec_pwat_147.txt.gz
Precipitable_Water
0.65 0.79 0.80 0.82 0.38 0.37 0.28 0.41 0.59 0.48 0.42 0.49 0.48 0.50 0.67 0.80 0.79 0.70 1.47 1.55 1.62 1.58 1.62 1.54 1.51 1.33 1.38 1.46 1.48 1.39 1.33 1.29 1.22 1.15 1.33 1.16 1.14 1.17 1.30 1.44 1.60 1.63 1.62 1.82 1.74 1.62 1.55 1.47 1.38
0.53 0.70 0.75 0.64 0.29 0.24 0.35 0.45 0.45 0.47 0.47 0.50 0.50 0.51 0.69 0.73 1.01 1.21 1.30 1.45 1.50 1.56 1.60 1.54 1.56 1.39 1.32 1.37 1.40 1.39 1.28 1.24 1.26 1.24 1.20 1.30 1.23 1.31 1.26 1.48 1.74 1.68 1.58 1.61 1.60 1.54 1.50 1.43 1.35
0.46 0.69 0.56 0.45 0.29 0.28 0.33 0.48 0.48 0.49 0.52 0.44 0.44 0.58 0.87 0.92 1.17 1.24 1.44 1.39 1.43 1.52 1.59 1.57 1.57 1.49 1.33 1.34 1.34 1.34 1.40 1.48 1.33 1.25 1.23 1.24 1.39 1.33 1.38 1.42 1.53 1.62 1.63 1.51 1.45 1.40 1.34 1.27 1.24
0.52 0.54 0.58 0.38 0.29 0.38 0.41 0.44 0.46 0.42 0.43 0.42 0.44 0.53 0.88 1.18 1.16 1.26 1.32 1.23 1.35 1.46 1.55 1.57 1.56 1.56 1.44 1.45 1.40 1.44 1.55 1.55 1.47 1.32 1.28 1.19 1.31 1.33 1.37 1.47 1.45 1.47 1.41 1.37 1.28 1.25 1.22 1.22 1.25
0.71 0.61 0.33 0.28 0.26 0.36 0.45 0.46 0.45 0.35 0.30 0.38 0.37 0.49 0.72 1.14 1.27 1.31 1.20 1.23 1.30 1.44 1.53 1.60 1.57 1.58 1.55 1.56 1.59 1.54 1.66 1.64 1.52 1.47 1.32 1.20 1.24 1.31 1.34 1.38 1.44 1.45 1.36 1.26 1.22 1.26 1.25 1.22 1.33
0.46 0.47 0.28 0.24 0.32 0.35 0.42 0.44 0.39 0.32 0.27 0.28 0.28 0.42 0.73 1.18 1.17 1.23 1.21 1.25 1.38 1.38 1.50 1.63 1.60 1.59 1.59 1.63 1.69 1.71 1.67 1.67 1.64 1.55 1.43 1.28 1.22 1.30 1.35 1.33 1.42 1.34 1.33 1.41 1.33 1.42 1.45 1.45 1.45
0.44 0.38 0.24 0.25 0.27 0.27 0.32 0.38 0.31 0.26 0.27 0.29 0.32 0.30 0.71 0.92 1.10 1.15 1.22 1.20 1.45 1.50 1.65 1.76 1.89 1.76 1.75 1.69 1.73 1.66 1.70 1.77 1.74 1.66 1.53 1.37 1.41 1.40 1.43 1.29 1.42 1.37 1.36 1.38 1.50 1.56 1.60 1.51 1.49
0.52 0.42 0.27 0.25 0.20 0.23 0.34 0.33 0.33 0.30 0.28 0.38 0.37 0.27 0.42 0.73 0.92 1.02 1.00 1.13 1.31 1.47 1.52 1.55 1.66 1.72 1.77 1.69 1.76 1.67 1.65 1.78 1.86 1.77 1.68 1.55 1.52 1.45 1.47 1.48 1.49 1.39 1.39 1.44 1.52 1.56 1.58 1.47 1.35
0.53 0.30 0.21 0.26 0.26 0.29 0.33 0.30 0.35 0.35 0.29 0.32 0.35 0.35 0.44 0.55 0.66 0.72 0.74 0.76 0.88 1.34 1.44 1.63 1.59 1.65 1.68 1.73 1.69 1.69 1.69 1.73 1.87 1.88 1.81 1.70 1.57 1.52 1.48 1.54 1.49 1.42 1.42 1.39 1.39 1.48 1.51 1.40 1.28
0.33 0.25 0.28 0.33 0.33 0.32 0.36 0.32 0.29 0.31 0.31 0.30 0.32 0.41 0.47 0.46 0.45 0.50 0.62 0.71 0.78 0.85 1.17 1.31 1.49 1.58 1.65 1.66 1.65 1.71 1.68 1.72 1.78 1.81 1.89 1.85 1.66 1.62 1.57 1.45 1.47 1.49 1.53 1.41 1.43 1.39 1.35 1.28 1.18
0.41 0.26 0.35 0.35 0.35 0.36 0.33 0.31 0.30 0.26 0.25 0.29 0.37 0.41 0.48 0.47 0.44 0.42 0.50 0.77 0.72 0.71 0.83 1.14 1.27 1.36 1.43 1.48 1.54 1.70 1.75 1.79 1.85 1.86 1.82 1.82 1.79 1.67 1.64 1.56 1.49 1.64 1.55 1.53 1.39 1.38 1.33 1.20 1.14
0.33 0.37 0.35 0.35 0.36 0.31 0.27 0.29 0.27 0.31 0.31 0.38 0.44 0.50 0.50 0.48 0.45 0.47 0.47 0.54 0.58 0.60 0.69 0.85 1.05 1.20 1.26 1.34 1.45 1.55 1.64 1.70 1.89 1.88 1.89 1.71 1.69 1.71 1.70 1.64 1.58 1.62 1.61 1.48 1.39 1.39 1.33 1.19 1.12
0.36 0.35 0.36 0.37 0.37 0.35 0.34 0.29 0.30 0.30 0.39 0.44 0.48 0.47 0.47 0.48 0.47 0.54 0.58 0.58 0.59 0.57 0.61 0.74 0.88 0.95 1.09 1.24 1.34 1.50 1.58 1.62 1.70 1.75 1.78 1.80 1.67 1.55 1.50 1.72 1.69 1.68 1.67 1.47 1.37 1.30 1.28 1.10 1.15
0.38 0.38 0.37 0.38 0.37 0.37 0.32 0.32 0.35 0.32 0.39 0.41 0.45 0.45 0.48 0.48 0.50 0.54 0.57 0.59 0.60 0.62 0.65 0.73 0.84 0.94 1.04 1.12 1.21 1.30 1.44 1.55 1.64 1.68 1.71 1.74 1.61 1.42 1.27 1.51 1.76 1.74 1.81 1.65 1.46 1.12 1.10 1.00 1.05
0.39 0.29 0.31 0.29 0.31 0.33 0.39 0.31 0.29 0.33 0.40 0.39 0.45 0.47 0.49 0.50 0.54 0.56 0.61 0.60 0.60 0.63 0.70 0.75 0.82 0.94 1.01 1.10 1.22 1.28 1.40 1.45 1.50 1.57 1.56 1.49 1.42 1.34 1.21 1.30 1.55 1.77 1.85 1.71 1.44 1.12 1.05 0.93 0.99
0.34 0.32 0.22 0.28 0.34 0.37 0.37 0.23 0.30 0.34 0.38 0.36 0.42 0.46 0.50 0.50 0.57 0.64 0.66 0.68 0.72 0.74 0.75 0.81 0.86 0.92 0.92 0.97 1.12 1.35 1.34 1.48 1.46 1.45 1.46 1.46 1.34 1.27 1.16 1.15 1.50 1.75 1.80 1.59 1.51 1.14 1.00 0.93 0.92
0.27 0.22 0.27 0.29 0.34 0.34 0.33 0.26 0.31 0.37 0.35 0.34 0.40 0.43 0.45 0.51 0.63 0.69 0.75 0.77 0.81 0.82 0.83 0.86 0.91 0.91 0.98 0.99 1.05 1.24 1.38 1.30 1.50 1.49 1.42 1.40 1.26 1.27 1.28 1.18 1.42 1.66 1.66 1.58 1.46 1.21 1.09 0.93 0.90
0.22 0.27 0.30 0.29 0.34 0.35 0.31 0.28 0.32 0.34 0.31 0.33 0.36 0.41 0.45 0.53 0.60 0.71 0.76 0.82 0.87 0.89 0.90 0.89 0.91 0.92 0.97 1.05 1.09 1.19 1.28 1.31 1.37 1.36 1.34 1.35 1.37 1.35 1.22 1.22 1.37 1.54 1.62 1.51 1.44 1.21 1.15 0.99 0.89
0.32 0.30 0.29 0.33 0.37 0.33 0.30 0.28 0.29 0.31 0.29 0.28 0.35 0.42 0.50 0.53 0.62 0.69 0.74 0.79 0.77 0.80 0.82 0.82 0.83 0.92 0.93 1.01 1.05 1.09 1.20 1.19 1.22 1.28 1.31 1.34 1.32 1.31 1.25 1.25 1.39 1.55 1.60 1.47 1.34 1.21 1.15 1.04 0.94
0.36 0.31 0.29 0.32 0.35 0.31 0.28 0.27 0.30 0.30 0.30 0.30 0.34 0.46 0.50 0.53 0.57 0.64 0.70 0.74 0.80 0.83 0.91 0.90 0.84 0.88 0.95 1.04 1.12 1.16 1.23 1.24 1.22 1.20 1.21 1.29 1.30 1.31 1.35 1.39 1.44 1.56 1.47 1.39 1.34 1.20 1.13 1.04 0.99
0.34 0.30 0.29 0.28 0.30 0.32 0.29 0.25 0.26 0.31 0.37 0.39 0.45 0.52 0.53 0.53 0.54 0.60 0.69 0.76 0.82 0.88 0.97 0.99 0.93 0.86 0.89 1.00 1.05 1.20 1.30 1.23 1.17 1.16 1.15 1.22 1.29 1.33 1.46 1.42 1.46 1.53 1.42 1.35 1.34 1.24 1.13 0.99 0.98
0.30 0.36 0.34 0.31 0.27 0.21 0.29 0.16 0.22 0.24 0.30 0.38 0.43 0.49 0.52 0.50 0.58 0.65 0.72 0.78 0.84 0.95 1.06 1.03 1.04 0.96 0.98 1.03 1.08 1.12 1.05 1.01 1.07 1.10 1.14 1.14 1.20 1.27 1.39 1.43 1.50 1.50 1.39 1.34 1.32 1.27 1.08 1.08 0.89
0.34 0.39 0.34 0.32 0.28 0.26 0.25 0.21 0.20 0.29 0.30 0.37 0.44 0.50 0.51 0.54 0.59 0.65 0.75 0.82 0.89 0.97 1.01 1.07 1.08 1.06 1.09 1.06 1.19 1.10 1.04 1.03 1.07 1.12 1.08 1.04 1.13 1.25 1.40 1.47 1.51 1.50 1.40 1.37 1.28 1.21 1.06 1.07 0.98
0.43 0.39 0.37 0.34 0.29 0.18 0.22 0.21 0.19 0.25 0.29 0.39 0.47 0.53 0.50 0.56 0.61 0.70 0.82 0.87 0.89 0.98 1.01 1.06 1.06 1.08 1.15 1.15 1.14 1.08 1.06 1.07 1.11 1.13 1.07 1.07 1.11 1.27 1.31 1.51 1.62 1.56 1.48 1.42 1.25 1.22 1.12 1.02 1.03
0.39 0.35 0.25 0.23 0.22 0.17 0.30 0.27 0.25 0.33 0.38 0.41 0.45 0.51 0.55 0.56 0.61 0.70 0.77 0.80 0.87 0.93 1.01 1.05 1.08 1.09 1.15 1.17 1.21 1.19 1.17 1.10 1.07 1.07 1.09 1.04 1.09 1.15 1.29 1.49 1.61 1.52 1.48 1.38 1.25 1.21 1.18 1.10 1.09
0.33 0.34 0.25 0.19 0.21 0.23 0.30 0.22 0.27 0.38 0.42 0.46 0.51 0.53 0.56 0.55 0.61 0.69 0.77 0.80 0.86 0.92 0.99 1.04 1.10 1.13 1.19 1.23 1.27 1.30 1.17 1.09 1.11 1.18 1.16 1.14 1.12 1.22 1.32 1.46 1.53 1.51 1.48 1.43 1.29 1.31 1.18 1.17 1.15
0.33 0.29 0.37 0.30 0.31 0.24 0.22 0.26 0.35 0.40 0.41 0.45 0.48 0.51 0.47 0.54 0.59 0.68 0.76 0.80 0.85 0.90 0.95 1.00 1.01 1.09 1.19 1.23 1.25 1.22 1.14 1.17 1.16 1.28 1.28 1.20 1.21 1.25 1.32 1.43 1.46 1.44 1.46 1.41 1.38 1.30 1.28 1.28 1.21
0.40 0.41 0.30 0.31 0.22 0.20 0.21 0.21 0.20 0.33 0.36 0.43 0.45 0.44 0.45 0.54 0.57 0.66 0.74 0.78 0.83 0.86 0.89 0.95 1.00 1.04 1.09 1.13 1.17 1.21 1.21 1.17 1.28 1.33 1.29 1.28 1.35 1.36 1.36 1.39 1.37 1.36 1.37 1.36 1.33 1.31 1.30 1.24 1.21
0.38 0.33 0.34 0.34 0.31 0.23 0.20 0.21 0.29 0.31 0.38 0.40 0.45 0.45 0.45 0.53 0.56 0.64 0.72 0.77 0.81 0.84 0.84 0.85 0.89 0.93 0.97 1.01 1.04 1.07 1.13 1.21 1.33 1.30 1.32 1.34 1.36 1.37 1.34 1.35 1.35 1.34 1.30 1.28 1.25 1.27 1.22 1.17 1.15
0.41 0.38 0.36 0.28 0.26 0.28 0.26 0.23 0.31 0.35 0.39 0.43 0.42 0.44 0.50 0.57 0.61 0.66 0.69 0.75 0.77 0.78 0.79 0.80 0.88 0.91 0.97 1.02 1.04 1.08 1.07 1.16 1.22 1.21 1.31 1.36 1.32 1.36 1.35 1.35 1.32 1.32 1.29 1.26 1.25 1.21 1.23 1.20 1.18